www.pogodaiklimat.ru

Погода и климат >> Архив погоды >> Марокко >> Марракеш


АРХИВ ПОГОДЫ в Марракеше

Время (UTC), дата Ветер
(напр.,м/с)
 
Видим.   Явления Облачность Т
(С)
Тd
(С)
f
(%)
Тe
(С)
Тes
(С)
Комфортность P
(гПа)
Po
(гПа)
Тmin
(С)
Tmax
(С)
R
(мм)
R24
(мм)
S
(см)
00 15.09 З 1 10 км ясно +22.0 +13.4 58 +25 +25 комфорт 1017.2 963.8
03 15.09 ЮЗ 2 10 км ясно +20.6 +13.3 63 +24 +24 комфорт 1016.4 962.8
06 15.09 ЮЗ 2 10 км 3/0
[Ci sp]
+18.2 +13.3 73 +19 +19 по сезону 1017.5 963.4 +18.2
09 15.09 З 1 10 км 4/0
[Ci sp]
+25.1 +15.1 54 +28 +34 жарко 1017.3 964.4
12 15.09 С 2 8000 м 4/0
[Ci sp]
+30.9 +13.2 34 +32 +48 жарко 1015.9 964.1
15 15.09 СЗ 3 10 км 3/0
[Ci sp]
+34.2 +8.8 21 +33 +41 жарко 1013.7 962.5
18 15.09 ЮЗ 3 10 км ясно +32.9 +7.7 21 +31 +32 жарко 1013.7 962.3 +34.4
21 15.09 С 4 10 км ясно +27.9 +11.5 36 +29 +29 жарко 1015.8 963.5
00 16.09 В 2 10 км ясно +24.3 +13.8 52 +27 +27 жарко 1016.9 963.9
03 16.09 ЮЗ 2 10 км ясно +21.1 +13.3 61 +23 +23 комфорт 1016.6 963.0
06 16.09 штиль 0 9000 м ясно +19.7 +13.2 66 +21 +21 комфорт 1016.6 962.8 +18.0
09 16.09 СВ 2 10 км ясно +26.7 +13.8 45 +29 +35 жарко 1016.0 963.4
12 16.09 С 1 10 км 4/0
[Ci sp]
+32.8 +11.3 27 +33 +50 жарко 1014.4 962.9
15 16.09 СЗ 3 10 км 4/0
[Ci sp]
+36.3 +8.2 18 +34 +42 очень
жарко
1011.7 961.0
18 16.09 ЮЗ 3 10 км 8/3 1000 м
[Cu med, cong Ac cast Ci sp]
+32.5 +9.3 24 +32 +32 жарко 1013.1 961.7 +36.6
21 16.09 С 4 10 км 3/0
[Ci sp]
+28.2 +12.5 38 +30 +30 жарко 1014.2 962.0
00 17.09 ЮЗ 2 10 км ясно +25.5 +13.4 47 +28 +28 жарко 1014.3 961.6
03 17.09 З 3 10 км 4/0
[Ci sp]
+22.9 +13.4 55 +26 +26 жарко 1013.3 960.2
06 17.09 ЮЗ 3 10 км 6/0
[Ci sp]
+22.1 +14.2 61 +25 +25 комфорт 1013.6 960.4 +19.3
09 17.09 З 1 10 км 8/0
[Ac trans Ci sp]
+27.1 +15.1 48 +30 +34 душно 1013.8 961.4
12 17.09 СЗ 2 10 км 8/0
[Ac trans Ci sp]
+30.1 +14.2 38 +32 +43 жарко 1013.1 962.8
15 17.09 З 4 10 км 8/1 1200 м
[Cu med, cong Ac cast Ci sp]
+34.3 +10.2 23 +33 +37 жарко 1010.5 959.5
18 17.09 З 4 10 км 3/0
[Ci sp]
+33.0 +9.7 24 +32 +32 жарко 1010.5 959.3 +35.0
21 17.09 С 2 10 км ясно +25.8 +14.9 51 +29 +29 душно 1013.9 961.3
00 18.09 ЮЗ 3 10 км ясно +22.0 +14.9 64 +25 +25 комфорт 1014.9 961.6
03 18.09 З 2 10 км ясно +19.3 +15.0 76 +21 +21 комфорт 1014.5 960.7
06 18.09 ЮЗ 3 10 км 3/0
[Ac cast Ci sp]
+17.5 +15.1 86 +18 +18 по сезону 1015.5 961.4 +17.4
09 18.09 ЮЗ 2 9000 м 3/0
[Ac cast]
+21.9 +16.6 72 +26 +31 душно 1015.8 962.4
12 18.09 С 1 10 км 4/0
[Ac cast Ci sp]
+29.2 +15.3 43 +32 +48 душно 1013.8 961.8
15 18.09 СЗ 3 10 км 4/0
[Ac cast Ci sp]
+33.0 +11.5 27 +33 +40 жарко 1011.9 962.1
18 18.09 СЗ 2 10 км 5/0
[Ac cast Ci sp]
+31.8 +8.7 24 +31 +31 жарко 1011.9 960.4 +33.7
21 18.09 С 4 10 км 5/0
[Ac cast Ci sp]
+26.3 +13.4 45 +28 +28 жарко 1014.1 961.6
00 19.09 ЮЗ 2 10 км ясно +22.2 +13.5 58 +25 +25 комфорт 1015.1 961.8
03 19.09 З 1 10 км ясно +19.6 +13.3 67 +22 +22 комфорт 1014.5 960.8
06 19.09 ЮЗ 3 10 км ясно +19.1 +13.9 72 +21 +21 комфорт 1014.8 961.0 +17.9
09 19.09 штиль 0 10 км 3/0
[Ci sp]
+25.3 +14.7 52 +28 +35 жарко 1014.4 961.7
12 19.09 С 3 10 км 3/0
[Ci sp]
+31.0 +12.4 32 +32 +45 жарко 1011.9 960.3
15 19.09 СЗ 2 8000 м 1/1 1000 м
[Cu hum]
+35.6 +9.9 21 +34 +44 очень
жарко
1009.5 958.7
18 19.09 СЗ 4 55 км ясно +33.8 +10.4 24 +33 +33 жарко 1010.4 960.8 +24.7
21 19.09 СВ 4 10 км 3/0
[Ac trans]
+26.2 +13.3 45 +28 +28 жарко 1014.0 961.5
00 20.09 ЮЗ 3 7000 м 3/0
[Ac trans]
+21.9 +13.8 60 +25 +25 комфорт 1014.7 961.4
03 20.09 ЮЗ 3 10 км ясно +20.3 +14.0 67 +23 +23 комфорт 1013.6 960.1
06 20.09 З 1 10 км 3/0
[Ci sp]
+18.1 +13.4 74 +20 +20 тепло 1013.5 959.6 +17.6
09 20.09 ЮЗ 1 10 км 4/0
[Ac trans]
+24.5 +15.1 56 +27 +32 жарко 1013.7 960.9
12 20.09 СЗ 2 27 км ясно +29.1 +15.6 44 +32 +47 душно 1012.3 962.0
15 20.09 СЗ 4 10 км 8/1 800 м
[Cu med, cong Ac cast Ci sp]
+29.3 +14.3 40 +31 +35 жарко 1011.9 961.6
18 20.09 З 3 10 км 8/0
[Ac cast Ci sp]
+29.3 +12.6 36 +30 +31 жарко 1012.1 961.7 +30.8
21 20.09 З 1 25 км ясно +24.3 +13.2 50 +26 +26 жарко 1013.7 962.4
00 21.09 ЮЗ 4 10 км ясно +21.4 +13.6 61 +24 +24 комфорт 1013.0 959.7
03 21.09 ЮЗ 2 10 км ясно +18.1 +13.2 73 +19 +19 по сезону 1013.0 959.1
06 21.09 ЮЗ 3 10 км 3/0
[Ci sp]
+17.4 +14.3 82 +17 +17 по сезону 1014.6 960.5 +16.3
09 21.09 З 2 10 км 4/0
[Ac cast Ci sp]
+23.1 +15.6 63 +27 +32 душно 1014.5 963.1
12 21.09 З 2 10 км 4/0
[Ac cast Ci sp]
+28.8 +14.9 43 +31 +43 жарко 1012.8 962.4
15 21.09 З 3 10 км 5/0
[Ac cast Ci sp]
+31.8 +12.1 30 +32 +38 жарко 1011.3 961.4
18 21.09 З 4 10 км 6/0
[Ac cast Ci sp]
+31.0 +12.8 33 +32 +32 жарко 1011.9 961.8 +32.2
21 21.09 З 3 10 км 4/0
[Ci sp]
+24.0 +12.9 50 +26 +26 жарко 1015.0 962.0

 

Местоположение метеостанции Марракеш (Марокко): широта 31.62 долгота -8.03 высота над уровнем моря 466 м.

В архиве по умолчанию представлена погода в Марракеше за последнюю неделю. Архивные данные за месяц целиком и за предыдущие месяцы, начиная с января 2011 года, Вы можете получить, выбрав интересующий диапазон дат из раскрывающегося списка и нажав кнопку "Ввод!".


*Определитесь, кто Вы:
робот инопланетянин человек

Внимание! Время в таблицах - всемирное. Для получения местного времени необходимо прибавить поправку, которая равна 0 ч.

Смотрите также архив погоды в соседних городах и на ближайших метеорологических станциях:

Погода в Варзазате (Марокко) (132 км)
Погода в Сафи (Марокко) (135 км)
Погода в Таруданте (Марокко) (146 км)
Погода в Сеттате (Марокко) (153 км)
Погода в Аэропорту Эс-Сувейра-Могадор (Марокко) (158 км)
Погода в Эс-Сувейре (Марокко) (166 км)
Погода в Хурибге (Марокко) (171 км)
Погода в Бени-Меллале (Марокко) (175 км)
Погода в Касба-Тадле (Марокко) (194 км)
Погода в Агадире (Марокко) (195 км)

Пояснения к столбцам:

Ветер - указаны скорость ветра в м/с - средняя за 10 мин, порывы в срок и между сроками (в фигурных скобках) и направление, откуда дует ветер: С - северный, СВ - северо-восточный, В - восточный, ЮВ - юго-восточный, Ю - южный, ЮЗ - юго-западный, З - западный, СЗ - северо-западный.
Видимость - горизонтальная дальность видимости в метрах или километрах. При видимости от 1 до 10 км при отсутствии осадков обычно наблюдается дымка, при ухудшении видимости до 1 км и менее - туман. В сухую погоду видимость может ухудшаться дымом, пылью или мглою.
Явления - указаны атмосферные явления, наблюдавшиеся в срок или в последний час перед сроком; фигурными скобками обозначены явления, наблюдавшиеся между сроками (за 1-3 часа до срока); квадратными скобками обозначены град или гололедные отложения с указанием их диаметра в мм.
Облачность - указаны через наклонную черту общая и нижняя облачность в баллах и высота нижней границы облаков в метрах; квадратными скобками обозначены формы облаков: Ci - перистые, Cs - перисто-слоистые, Cc - перисто-кучевые, Ac - высококучевые, As - высокослоистые, Sc - слоисто-кучевые, Ns - слоисто-дождевые, Cu - кучевые, Cb - кучево-дождевые. Подробнее классификацию облаков см. в Атласе облаков (PDF).
T - Температура воздуха - температура, измеренная на высоте 2 м над землей.
Td - Температура точки росы - температура, при понижении до которой содержащийся в воздухе водяной пар достигнет насыщения.
f - Относительная влажность воздуха - влажноcть воздуха, измеренная на высоте 2 м над землей.
Te - Эффективная температура - температура, которую ощущает одетый по сезону человек в тени. Характеристика душности погоды. При расчете учитывается влияние влажности воздуха и скорости ветра на теплоощущения человека.
Tes - Эффективная температура на солнце - температура, которую ощущает человек, с поправкой на солнечный нагрев. Характеристика знойности погоды. Зависит от высоты солнца над горизонтом, облачности и скорости ветра. Ночью, в пасмурную погоду, а также при ветре 12 м/с и более поправка равна нулю.
P - Атмосферное давление - приведенное к уровню моря атмосферное давление.
Po - Атмосферное давление - измеренное на уровне метеостанции атмосферное давление.
Tmin - Минимальная температура - минимум температуры воздуха на высоте 2 м над землей.
Tmax - Максимальная температура - максимум температуры воздуха на высоте 2 м над землей.
R - Количество осадков - Количество выпавших осадков за период времени, мм. При наведении курсора мыши на число - период времени, за который выпало указанное количество осадков.
R24 - Количество осадков - Количество выпавших осадков за 24 часа, мм.
S - Снежный покров - Высота снежного покрова, см. При наведении курсора мыши на число - состояние снежного покрова и степень покрытия местности в баллах.